Eizan Maru No.18 — JD3750 — position and weather

sailwx.info

Track history (hours):
 
Tides and Currents Weather Stations Pressure Air Temp Water Temp Dewpoint Dewpoint Depression Visibility Wind Speed Wind Dir Waves Ship Positions

Eizan Maru No.18

Last reported at 2017-Dec-09 20:58 UTC. Time now 2017-Dec-13 20:54 UTC.
Position N 41°46' E 141°41'.

Length 104 m; draft 6 m.

Type: Tanker. MMSI: 431005734.

Date/timePositionNaut miles runAvg speedWind from/ knotsBaromVisibWave heightAir tempDewpointWater temp
2017-Dec-09 20:58N 41°46' E 141°41'1312.7
2017-Dec-09 19:57N 41°33' E 141°40'612.9
2017-Dec-09 19:29N 41°27' E 141°39'38812.5
2017-Dec-08 12:32N 35°04' E 140°27'315.0
2017-Dec-08 12:22N 35°02' E 140°24'615.4
2017-Dec-08 11:59N 35°00' E 140°17'815.8
2017-Dec-08 11:30N 34°57' E 140°09'814.9
2017-Dec-08 11:00N 34°54' E 140°01'714.4
2017-Dec-08 10:30N 34°51' E 139°53'714.4
2017-Dec-08 10:00N 34°54' E 139°44'815.3
2017-Dec-08 09:30N 35°01' E 139°42'714.8
2017-Dec-08 09:01N 35°08' E 139°45'713.4
2017-Dec-08 08:30N 35°15' E 139°46'612.4
2017-Dec-08 08:00N 35°20' E 139°42'612.4
2017-Dec-08 07:30N 35°26' E 139°45'713.4
2017-Dec-08 07:00N 35°30' E 139°52'2 3.1
2017-Dec-08 06:27N 35°29' E 139°54'0 0.0
2017-Dec-08 05:57N 35°29' E 139°54'0 0.7
2017-Dec-08 05:30N 35°29' E 139°54'510.9
2017-Dec-08 05:00N 35°30' E 140°01'1 1.1
2017-Dec-08 04:01N 35°30' E 140°02'0 0.0
2017-Dec-08 01:25N 35°30' E 140°02'0 0.0
2017-Dec-08 00:55N 35°30' E 140°02'0 0.0
2017-Dec-08 00:16N 35°30' E 140°02'0 0.0
2017-Dec-07 23:55N 35°30' E 140°02'0 0.4
2017-Dec-07 23:29N 35°30' E 140°02'3 6.7
2017-Dec-07 23:01N 35°32' E 139°59'0 0.2
2017-Dec-07 22:19N 35°32' E 139°59'0 0.0
2017-Dec-07 21:55N 35°32' E 139°59'0 0.1
2017-Dec-07 21:25N 35°32' E 139°59'0 0.1
2017-Dec-07 20:58N 35°32' E 139°59'0 0.1
2017-Dec-07 20:25N 35°32' E 139°59'0 0.0
2017-Dec-07 19:55N 35°32' E 139°59'0 0.0
2017-Dec-07 19:25N 35°32' E 139°59'0 0.0
2017-Dec-07 18:55N 35°32' E 139°59'0 0.0
2017-Dec-07 18:25N 35°32' E 139°59'0 0.1
2017-Dec-07 17:55N 35°32' E 139°59'0 0.0
2017-Dec-07 17:25N 35°32' E 139°59'0 0.0
2017-Dec-07 16:58N 35°32' E 139°59'0 0.0
2017-Dec-07 16:25N 35°32' E 139°59'0 0.0
2017-Dec-07 15:55N 35°32' E 139°59'0 0.0
2017-Dec-07 15:28N 35°32' E 139°59'0 0.1
2017-Dec-07 14:55N 35°32' E 139°59'0 0.1
2017-Dec-07 14:25N 35°32' E 139°59'0 0.0
2017-Dec-07 13:55N 35°32' E 139°59'0 0.1
2017-Dec-07 13:25N 35°32' E 139°59'0 0.0
2017-Dec-07 12:58N 35°32' E 139°59'0 0.1
2017-Dec-07 12:25N 35°32' E 139°59'0 0.0
2017-Dec-07 11:55N 35°32' E 139°59'0 0.1
2017-Dec-07 11:25N 35°32' E 139°59'0 0.0
2017-Dec-07 10:55N 35°32' E 139°59'0 0.1
2017-Dec-07 10:25N 35°32' E 139°59'0 0.0
2017-Dec-07 09:55N 35°32' E 139°59'0 0.0
2017-Dec-07 09:25N 35°32' E 139°59'0 0.0
2017-Dec-07 08:55N 35°32' E 139°59'0 0.0
2017-Dec-07 08:10N 35°32' E 139°59'0 0.1
2017-Dec-07 07:46N 35°32' E 139°59'0 0.1
2017-Dec-07 07:28N 35°32' E 139°59'0 0.0
2017-Dec-07 06:49N 35°32' E 139°59'0 0.0
2017-Dec-07 06:25N 35°32' E 139°59'0 0.0
2017-Dec-07 05:55N 35°32' E 139°59'0 0.0
2017-Dec-07 05:25N 35°32' E 139°59'0 0.0
2017-Dec-07 04:55N 35°32' E 139°59'0 0.1
2017-Dec-07 04:19N 35°32' E 139°59'0 0.1
2017-Dec-07 03:58N 35°32' E 139°59'0 0.1
2017-Dec-07 03:28N 35°32' E 139°59'0 0.0
2017-Dec-07 02:58N 35°32' E 139°59'0 0.0
2017-Dec-07 02:25N 35°32' E 139°59'0 0.0
2017-Dec-07 01:55N 35°32' E 139°59'0 0.0
2017-Dec-07 01:25N 35°32' E 139°59'0 0.0
2017-Dec-07 00:58N 35°32' E 139°59'0 0.0
2017-Dec-07 00:25N 35°32' E 139°59'0 0.0
2017-Dec-06 23:55N 35°32' E 139°59'0 0.0
2017-Dec-06 23:25N 35°32' E 139°59'0 0.0
2017-Dec-06 22:58N 35°32' E 139°59'0 0.0
2017-Dec-06 22:28N 35°32' E 139°59'0 0.1
2017-Dec-06 21:58N 35°32' E 139°59'0 0.1
2017-Dec-06 21:25N 35°32' E 139°59'0 0.0
2017-Dec-06 20:55N 35°32' E 139°59'  
2017-Dec-01 01:53N 41°44' E 141°37'713.2
2017-Dec-01 01:23N 41°37' E 141°37'512.5
2017-Dec-01 01:00N 41°32' E 141°36'713.1
2017-Dec-01 00:30N 41°26' E 141°36'714.3
2017-Nov-30 23:59N 41°18' E 141°36'  
Track history (hours):
 
Tides and Currents Weather Stations Pressure Air Temp Water Temp Dewpoint Dewpoint Depression Visibility Wind Speed Wind Dir Waves Ship Positions

Eizan Maru No.18

Last reported at 2017-Dec-09 20:58 UTC. Time now 2017-Dec-13 20:54 UTC.
Position N 41°46' E 141°41'.

Length 104 m; draft 6 m.

Type: Tanker. MMSI: 431005734.

Date/timePositionNaut miles runAvg speedWind from/ knotsBaromVisibWave heightAir tempDewpointWater temp
2017-Dec-09 20:58N 41°46' E 141°41'1312.7
2017-Dec-09 19:57N 41°33' E 141°40'612.9
2017-Dec-09 19:29N 41°27' E 141°39'38812.5
2017-Dec-08 12:32N 35°04' E 140°27'315.0
2017-Dec-08 12:22N 35°02' E 140°24'615.4
2017-Dec-08 11:59N 35°00' E 140°17'815.8
2017-Dec-08 11:30N 34°57' E 140°09'814.9
2017-Dec-08 11:00N 34°54' E 140°01'714.4
2017-Dec-08 10:30N 34°51' E 139°53'714.4
2017-Dec-08 10:00N 34°54' E 139°44'815.3
2017-Dec-08 09:30N 35°01' E 139°42'714.8
2017-Dec-08 09:01N 35°08' E 139°45'713.4
2017-Dec-08 08:30N 35°15' E 139°46'612.4
2017-Dec-08 08:00N 35°20' E 139°42'612.4
2017-Dec-08 07:30N 35°26' E 139°45'713.4
2017-Dec-08 07:00N 35°30' E 139°52'2 3.1
2017-Dec-08 06:27N 35°29' E 139°54'0 0.0
2017-Dec-08 05:57N 35°29' E 139°54'0 0.7
2017-Dec-08 05:30N 35°29' E 139°54'510.9
2017-Dec-08 05:00N 35°30' E 140°01'1 1.1
2017-Dec-08 04:01N 35°30' E 140°02'0 0.0
2017-Dec-08 01:25N 35°30' E 140°02'0 0.0
2017-Dec-08 00:55N 35°30' E 140°02'0 0.0
2017-Dec-08 00:16N 35°30' E 140°02'0 0.0
2017-Dec-07 23:55N 35°30' E 140°02'0 0.4
2017-Dec-07 23:29N 35°30' E 140°02'3 6.7
2017-Dec-07 23:01N 35°32' E 139°59'0 0.2
2017-Dec-07 22:19N 35°32' E 139°59'0 0.0
2017-Dec-07 21:55N 35°32' E 139°59'0 0.1
2017-Dec-07 21:25N 35°32' E 139°59'0 0.1
2017-Dec-07 20:58N 35°32' E 139°59'0 0.1
2017-Dec-07 20:25N 35°32' E 139°59'0 0.0
2017-Dec-07 19:55N 35°32' E 139°59'0 0.0
2017-Dec-07 19:25N 35°32' E 139°59'0 0.0
2017-Dec-07 18:55N 35°32' E 139°59'0 0.0
2017-Dec-07 18:25N 35°32' E 139°59'0 0.1
2017-Dec-07 17:55N 35°32' E 139°59'0 0.0
2017-Dec-07 17:25N 35°32' E 139°59'0 0.0
2017-Dec-07 16:58N 35°32' E 139°59'0 0.0
2017-Dec-07 16:25N 35°32' E 139°59'0 0.0
2017-Dec-07 15:55N 35°32' E 139°59'0 0.0
2017-Dec-07 15:28N 35°32' E 139°59'0 0.1
2017-Dec-07 14:55N 35°32' E 139°59'0 0.1
2017-Dec-07 14:25N 35°32' E 139°59'0 0.0
2017-Dec-07 13:55N 35°32' E 139°59'0 0.1
2017-Dec-07 13:25N 35°32' E 139°59'0 0.0
2017-Dec-07 12:58N 35°32' E 139°59'0 0.1
2017-Dec-07 12:25N 35°32' E 139°59'0 0.0
2017-Dec-07 11:55N 35°32' E 139°59'0 0.1
2017-Dec-07 11:25N 35°32' E 139°59'0 0.0
2017-Dec-07 10:55N 35°32' E 139°59'0 0.1
2017-Dec-07 10:25N 35°32' E 139°59'0 0.0
2017-Dec-07 09:55N 35°32' E 139°59'0 0.0
2017-Dec-07 09:25N 35°32' E 139°59'0 0.0
2017-Dec-07 08:55N 35°32' E 139°59'0 0.0
2017-Dec-07 08:10N 35°32' E 139°59'0 0.1
2017-Dec-07 07:46N 35°32' E 139°59'0 0.1
2017-Dec-07 07:28N 35°32' E 139°59'0 0.0
2017-Dec-07 06:49N 35°32' E 139°59'0 0.0
2017-Dec-07 06:25N 35°32' E 139°59'0 0.0
2017-Dec-07 05:55N 35°32' E 139°59'0 0.0
2017-Dec-07 05:25N 35°32' E 139°59'0 0.0
2017-Dec-07 04:55N 35°32' E 139°59'0 0.1
2017-Dec-07 04:19N 35°32' E 139°59'0 0.1
2017-Dec-07 03:58N 35°32' E 139°59'0 0.1
2017-Dec-07 03:28N 35°32' E 139°59'0 0.0
2017-Dec-07 02:58N 35°32' E 139°59'0 0.0
2017-Dec-07 02:25N 35°32' E 139°59'0 0.0
2017-Dec-07 01:55N 35°32' E 139°59'0 0.0
2017-Dec-07 01:25N 35°32' E 139°59'0 0.0
2017-Dec-07 00:58N 35°32' E 139°59'0 0.0
2017-Dec-07 00:25N 35°32' E 139°59'0 0.0
2017-Dec-06 23:55N 35°32' E 139°59'0 0.0
2017-Dec-06 23:25N 35°32' E 139°59'0 0.0
2017-Dec-06 22:58N 35°32' E 139°59'0 0.0
2017-Dec-06 22:28N 35°32' E 139°59'0 0.1
2017-Dec-06 21:58N 35°32' E 139°59'0 0.1
2017-Dec-06 21:25N 35°32' E 139°59'0 0.0
2017-Dec-06 20:55N 35°32' E 139°59'  
2017-Dec-01 01:53N 41°44' E 141°37'713.2
2017-Dec-01 01:23N 41°37' E 141°37'512.5
2017-Dec-01 01:00N 41°32' E 141°36'713.1
2017-Dec-01 00:30N 41°26' E 141°36'714.3
2017-Nov-30 23:59N 41°18' E 141°36'  

Dump ship's entire track history